sat.trackr.live / text

‹ back to catalog

STARLINK-3372

NORAD 51113 · 2022-005K

PAYLOAD ACTIVE UNKNOWN

§ Identity

Operator
Country
US
Launch date
2022-01-19
Launch site
AFETR
Launch vehicle
Mass (kg)
RCS (m²)

Purposes: comms

External: N2YO · Heavens-Above · Gunter

§ Orbital elements

Epoch: 2026-09-20T04:00:03.000096Z

Period
93.85 min
Inclination
53.1599°
Eccentricity
0.0001326
Mean motion
15.34388486 rev/d
Perigee alt
461.8 km
Apogee alt
463.6 km
Semi-major
6,840.9 km
B*
3.5658e-4
RAAN
127.4357°
Arg perigee
82.2447°
Mean anomaly
48.4561°
Rev number
571

§ Raw data

STARLINK-33721 51113U 22005K   26263.16670139  .00011686  00000+0  35658-3 0  99932 51113  53.1599 127.4357 0001326  82.2447  48.4561 15.34388486  5714

JSON: /api/v1/satellites/51113 · /tle

For live sub-satellite position, see the globe view (requires WebGL).

§ Visibility from observer

Set your observer location to see the next 7 days of passes ≥ 10°. The values pass through the URL so the page stays shareable.

No JS? Fill the form by hand. The geolocation button needs JavaScript.